[[{"header":{"parameterUnit":"m.s-1","parameterCategory":1,"la1":30.2991,"la2":30.254,"lo1":-89.0895,"lo2":-89.0444,"dy":0.0017,"dx":0.0017,"nx":28,"ny":28,"refTime":"2023-08-17T03:00:00:Z","depth":0,"parameterNumber":2,"parameterNumberName":"U-component_of_WINDS"},"data":[0,0,0,0,0,0,0,0,0,0,0,0,0,0,0,0,0,0,0,0,0,0,0,0,0,0,0,0,0,0,0,0,0,0,0,0,0,0,0,0,0,0,0,0,0,0,0,0,0,0,0,0,0,0,0,0,0,0,1.7357,1.7358,0,1.745,1.7451,1.7452,1.7482,1.7481,1.7481,1.748,1.7581,1.7584,1.7587,0,0,0,0,0,0,0,0,0,0,0,0,0,1.7208,1.7211,1.7357,1.7358,1.7359,1.745,1.7451,1.7453,1.7482,1.7481,1.748,1.748,1.758,1.7583,1.7587,0,0,0,0,0,0,0,0,0,0,0,0,0,1.7284,1.7212,1.7357,1.7384,1.7388,1.745,1.7451,1.7453,1.7482,1.7481,1.748,1.748,1.7578,1.7583,1.7587,1.763,0,0,1.7602,1.7604,0,0,0,0,0,0,0,0,1.728,1.729,1.7379,1.7383,1.7387,1.7453,1.7436,1.7513,1.7482,1.7446,1.748,1.7479,1.7539,1.7547,1.7566,1.7635,1.7639,1.7602,1.7605,1.7607,1.7608,0,0,0,0,0,0,0,1.7275,1.7286,1.7394,1.738,1.7385,1.7394,1.7404,1.7451,1.7496,1.7449,1.7452,1.7462,1.7541,1.7562,1.7569,1.7641,1.7602,1.7606,1.7609,1.7611,1.775,1.7751,0,0,0,0,0,0,1.7264,1.7281,1.7391,1.7397,1.733,1.7397,1.7408,1.7433,1.7495,1.7504,1.7463,1.7463,1.7554,1.7563,1.7572,1.7627,1.7607,1.7611,1.7614,1.7749,1.775,1.7751,0,0,0,0,0,0,1.7261,1.7274,1.7387,1.734,1.7355,1.74,1.7428,1.7435,1.7456,1.7505,1.7514,1.7475,1.7554,1.7566,1.7615,1.7631,1.7613,1.7618,1.7748,1.7749,1.7751,1.7737,0,0,0,0,0,0,1.7256,1.7272,1.7288,1.734,1.7357,1.7427,1.7429,1.7437,1.7463,1.7464,1.7519,1.7527,1.7554,1.7608,1.762,1.7637,1.7621,1.7747,1.7749,1.775,1.7736,1.7737,1.7739,0,0,0,0,0,1.7251,1.7281,1.7288,1.7301,1.7377,1.7428,1.7438,1.7467,1.7464,1.7481,1.7513,1.7526,1.7627,1.7613,1.7627,1.7645,1.7746,1.7748,1.775,1.7735,1.7737,1.7739,0,0,0,0,0,0,1.7231,1.7288,1.7297,1.7344,1.7381,1.7433,1.7455,1.7468,1.7507,1.7507,1.7543,1.7555,1.7602,1.7629,1.7612,1.769,1.7687,1.7692,1.7671,1.7674,1.7675,1.7668,1.7625,0,0,0,0,0,1.7232,1.7267,1.7315,1.7353,1.737,1.7409,1.7432,1.7451,1.7491,1.7507,1.7543,1.7582,1.7623,1.765,1.769,1.7739,1.7753,1.7759,1.776,1.7761,1.7766,1.7795,1.7799,1.7758,1.7758,1.7758,0,0,1.7235,1.727,1.729,1.7349,1.738,1.7417,1.7422,1.7461,1.7489,1.7514,1.7563,1.759,1.7637,1.7686,1.771,1.771,1.778,1.7764,1.7764,1.7768,1.7797,1.7801,1.7805,1.7759,1.7759,1.7759,0,0,1.7258,1.7288,1.7323,1.7353,1.7398,1.7424,1.7432,1.7482,1.7501,1.755,1.757,1.7604,1.7674,1.7707,1.7732,1.7768,1.7782,1.778,1.7788,1.7816,1.7819,1.7822,1.7837,1.7841,1.7784,1.7784,1.7784,0,1.7257,1.7311,1.7339,1.7377,1.7403,1.7425,1.7462,1.749,1.7547,1.7565,1.7564,1.7652,1.7685,1.7743,1.7752,1.7771,1.7783,1.7775,1.7816,1.782,1.7823,1.7837,1.7842,1.7784,1.7784,1.7784,1.7784,0,1.7307,1.7345,1.7368,1.7421,1.745,1.7486,1.7521,1.7547,1.7564,1.759,1.764,1.768,1.773,1.7745,1.7761,1.7806,1.7804,1.7809,1.7807,1.7826,1.784,1.7845,1.7783,1.7783,1.7783,1.7784,0,0,1.7322,1.739,1.7398,1.7423,1.7474,1.7505,1.7543,1.759,1.7612,1.765,1.7685,1.7743,1.7747,1.7776,1.7797,1.7822,1.7849,1.7824,1.7825,1.7828,1.7902,1.7899,1.7904,1.7858,1.7859,1.786,1.7898,0,1.7354,1.7422,1.7448,1.7504,1.754,1.7562,1.7596,1.7632,1.7657,1.7693,1.7722,1.7763,1.7765,1.7783,1.7808,1.784,1.7865,1.7838,1.7892,1.7894,1.7881,1.7911,1.7908,1.7943,1.7904,1.7905,1.7905,0,1.74,1.7438,1.7497,1.7545,1.7561,1.759,1.7636,1.7669,1.7711,1.7728,1.776,1.7779,1.7822,1.7815,1.7876,1.7857,1.788,1.79,1.7902,1.7909,1.7902,1.7921,1.7954,1.796,1.7914,1.7913,1.7913,0,1.7407,1.7472,1.7516,1.7537,1.7593,1.7614,1.7638,1.7679,1.7706,1.7746,1.7764,1.7808,1.7833,1.7868,1.7899,1.7892,1.7957,1.7953,1.7974,1.7973,1.7988,1.7987,1.8027,1.8001,1.8001,1.8001,1.8001,0,1.744,1.7476,1.752,1.7547,1.7588,1.7619,1.7659,1.7686,1.7722,1.7756,1.7777,1.7809,1.7848,1.7885,1.791,1.7957,1.7967,1.7984,1.799,1.7983,1.7981,1.8,1.7999,1.8002,1.8002,1.8001,1.8001,0,1.7455,1.7486,1.7535,1.7584,1.7598,1.7626,1.7669,1.7697,1.7723,1.7766,1.7778,1.7819,1.7864,1.7898,1.7957,1.7974,1.8024,1.803,1.8009,1.8013,1.8032,1.803,1.8087,1.8096,1.8062,1.8062,1.8063,0,1.7475,1.7503,1.7554,1.7578,1.7602,1.764,1.7667,1.7698,1.7725,1.7775,1.7798,1.7843,1.7882,1.7953,1.7989,1.8035,1.8043,1.806,1.805,1.8042,1.8045,1.8043,1.8047,1.8061,1.8062,1.8062,1.8062,0,1.7508,1.7521,1.7558,1.7601,1.7632,1.7667,1.7703,1.7721,1.7759,1.7789,1.7834,1.7864,1.7923,1.7969,1.8018,1.8045,1.8061,1.8064,1.8072,1.8065,1.8052,1.8061,1.8014,1.8063,1.8063,1.8063,1.8063,1.8063,1.7527,1.7553,1.7593,1.7634,1.7664,1.7697,1.7726,1.7755,1.7793,1.7842,1.7858,1.7906,1.7948,1.8015,1.8042,1.8081,1.8081,1.8092,1.8095,1.8097,1.8097,1.8045,1.809,1.809,1.809,1.809,1.809,0,1.7562,1.7588,1.7625,1.7674,1.7707,1.7716,1.7756,1.7783,1.7824,1.7861,1.7898,1.7951,1.7995,1.8035,1.8082,1.8105,1.8113,1.8116,1.8116,1.8122,1.8093,1.8083,1.8109,1.8109,1.8109,1.8109,1.8109,1.8109,1.7584,1.7629,1.7647,1.7707,1.7734,1.778,1.7802,1.7833,1.7863,1.792,1.7957,1.7981,1.802,1.807,1.8112,1.8122,1.8139,1.8141,1.8154,1.8126,1.8124,1.8122,1.8112,1.8144,1.8144,1.8179,1.818,1.818]},{"header":{"parameterUnit":"m.s-1","parameterCategory":1,"la1":30.2991,"la2":30.254,"lo1":-89.0895,"lo2":-89.0444,"dy":0.0017,"dx":0.0017,"nx":28,"ny":28,"refTime":"2023-08-17T03:00:00:Z","depth":0,"parameterNumber":3,"parameterNumberName":"V-component_of_WINDS"},"data":[0,0,0,0,0,0,0,0,0,0,0,0,0,0,0,0,0,0,0,0,0,0,0,0,0,0,0,0,0,0,0,0,0,0,0,0,0,0,0,0,0,0,0,0,0,0,0,0,0,0,0,0,0,0,0,0,0,0,1.2365,1.2365,0,1.239,1.239,1.2391,1.2363,1.2362,1.2361,1.236,1.2385,1.2387,1.2388,0,0,0,0,0,0,0,0,0,0,0,0,0,1.2291,1.2293,1.2365,1.2365,1.2366,1.239,1.239,1.2391,1.2363,1.2362,1.2361,1.236,1.2385,1.2386,1.2388,0,0,0,0,0,0,0,0,0,0,0,0,0,1.232,1.2293,1.2365,1.2355,1.2354,1.239,1.239,1.2391,1.2364,1.2362,1.2361,1.2359,1.2384,1.2386,1.2389,1.2435,0,0,1.2396,1.2397,0,0,0,0,0,0,0,0,1.2319,1.2323,1.2356,1.2356,1.2355,1.2372,1.2373,1.2406,1.2364,1.236,1.236,1.2358,1.2382,1.2384,1.2393,1.2436,1.2437,1.2396,1.2398,1.2399,1.24,0,0,0,0,0,0,0,1.2317,1.2322,1.2375,1.2357,1.2356,1.2348,1.2351,1.2379,1.2379,1.236,1.2358,1.2362,1.2381,1.239,1.2393,1.2438,1.2396,1.2399,1.24,1.2401,1.2516,1.2517,0,0,0,0,0,0,1.2316,1.232,1.2374,1.2376,1.2333,1.2351,1.2354,1.2368,1.2379,1.2379,1.2363,1.236,1.2387,1.239,1.2394,1.2445,1.2399,1.2401,1.2403,1.2514,1.2516,1.2518,0,0,0,0,0,0,1.2315,1.2321,1.2373,1.2347,1.2353,1.2354,1.237,1.2369,1.2378,1.2381,1.2381,1.2372,1.2386,1.239,1.2424,1.2446,1.2402,1.2405,1.2512,1.2515,1.2517,1.2551,0,0,0,0,0,0,1.2313,1.2321,1.2339,1.2348,1.2355,1.2404,1.2372,1.2371,1.2383,1.2379,1.239,1.239,1.2385,1.242,1.2426,1.2448,1.2406,1.251,1.2513,1.2516,1.2548,1.2554,1.2559,0,0,0,0,0,1.231,1.2349,1.2341,1.2347,1.2378,1.2406,1.2409,1.2403,1.2385,1.2402,1.2403,1.239,1.2443,1.2424,1.2431,1.2454,1.2509,1.2512,1.2516,1.2545,1.2553,1.2559,0,0,0,0,0,0,1.2344,1.235,1.2341,1.2384,1.2394,1.2401,1.2423,1.2412,1.2428,1.2424,1.2415,1.2418,1.2452,1.2457,1.2436,1.2497,1.2473,1.2478,1.2492,1.25,1.2506,1.2503,1.2409,0,0,0,0,0,1.2356,1.2378,1.2382,1.242,1.2425,1.2423,1.2435,1.2429,1.2439,1.2443,1.2447,1.2458,1.2476,1.2488,1.2506,1.2548,1.2548,1.2567,1.2573,1.2578,1.2582,1.26,1.2608,1.2529,1.2529,1.2529,0,0,1.2382,1.2388,1.2403,1.2426,1.2434,1.2455,1.2427,1.2453,1.2467,1.2447,1.2478,1.2481,1.2492,1.2529,1.2545,1.2533,1.2603,1.2582,1.2586,1.2587,1.2605,1.2612,1.2619,1.2532,1.2531,1.2531,0,0,1.2439,1.2448,1.2478,1.2485,1.2496,1.2493,1.2501,1.2508,1.2509,1.254,1.2524,1.2542,1.2575,1.2582,1.259,1.2646,1.2632,1.2652,1.2682,1.27,1.2706,1.2712,1.2728,1.2735,1.2656,1.2656,1.2656,0,1.247,1.2502,1.2495,1.2519,1.2529,1.251,1.2539,1.2547,1.2563,1.2569,1.2556,1.2594,1.26,1.2637,1.265,1.2658,1.2664,1.265,1.2706,1.2711,1.2716,1.2732,1.2739,1.2658,1.2658,1.2658,1.2658,0,1.2537,1.256,1.2583,1.2597,1.2609,1.2636,1.2631,1.2644,1.2636,1.2635,1.2664,1.2671,1.2687,1.2696,1.2689,1.273,1.2722,1.2708,1.2683,1.2726,1.274,1.2746,1.2661,1.266,1.266,1.2659,0,0,1.2618,1.2625,1.2633,1.2638,1.2647,1.2663,1.2688,1.2704,1.2713,1.2725,1.2743,1.277,1.2756,1.2764,1.2758,1.2775,1.2814,1.2758,1.2757,1.2765,1.2855,1.2864,1.2871,1.2805,1.2807,1.2808,1.2853,0,1.2673,1.2715,1.2707,1.2748,1.2766,1.2748,1.2769,1.2776,1.2774,1.2789,1.2788,1.2805,1.2787,1.2791,1.2807,1.2806,1.2831,1.2803,1.282,1.2821,1.2816,1.288,1.289,1.2933,1.2859,1.286,1.2861,0,1.2743,1.2754,1.2796,1.2799,1.2806,1.2825,1.2836,1.2852,1.2858,1.2856,1.2864,1.2853,1.2876,1.2852,1.2881,1.2861,1.2868,1.2868,1.287,1.2869,1.2842,1.2878,1.2947,1.2952,1.287,1.287,1.2869,0,1.2792,1.2819,1.2846,1.2851,1.2856,1.2869,1.2871,1.2876,1.2885,1.2895,1.2899,1.2913,1.2919,1.2928,1.2921,1.2905,1.295,1.2926,1.2946,1.2946,1.2955,1.2954,1.3023,1.2964,1.2964,1.2964,1.2964,0,1.2853,1.2879,1.2868,1.2885,1.2912,1.2902,1.2929,1.2929,1.2933,1.2948,1.2934,1.2948,1.2938,1.2951,1.2946,1.2968,1.2972,1.2969,1.2967,1.2969,1.2969,1.2972,1.2968,1.2966,1.2965,1.2965,1.2965,0,1.2913,1.2908,1.2935,1.2936,1.2937,1.2957,1.2957,1.2971,1.2968,1.2987,1.2991,1.2986,1.3,1.2994,1.301,1.3005,1.3033,1.3029,1.3031,1.3029,1.3048,1.3045,1.3119,1.3127,1.3065,1.3066,1.3067,0,1.2951,1.297,1.2972,1.298,1.2983,1.2998,1.3006,1.2996,1.3004,1.3011,1.3024,1.3037,1.3046,1.3069,1.3066,1.3077,1.3071,1.3096,1.3072,1.3073,1.3067,1.3065,1.3065,1.31,1.3101,1.3101,1.3102,0,1.3017,1.3013,1.3025,1.3034,1.3044,1.3051,1.3058,1.3066,1.3056,1.3066,1.3079,1.3086,1.3101,1.3112,1.3121,1.3122,1.3109,1.3109,1.3114,1.3115,1.3114,1.3112,1.3041,1.3107,1.3107,1.3106,1.3106,1.3106,1.3065,1.308,1.3082,1.3094,1.3098,1.3103,1.3115,1.3113,1.3124,1.3134,1.3128,1.3143,1.3146,1.3156,1.3158,1.3169,1.3159,1.3167,1.3168,1.3169,1.3171,1.3114,1.3171,1.3171,1.3171,1.3171,1.317,0,1.3128,1.3128,1.314,1.3148,1.3157,1.3144,1.3149,1.3157,1.3171,1.3174,1.3183,1.3197,1.3207,1.3205,1.3213,1.3222,1.3216,1.3225,1.3223,1.3223,1.3181,1.3174,1.3229,1.3229,1.3229,1.3229,1.3229,1.3229,1.3162,1.3184,1.3179,1.3202,1.3201,1.3215,1.3219,1.3223,1.3225,1.3241,1.3249,1.3247,1.3247,1.3255,1.3264,1.3262,1.3265,1.3275,1.3271,1.3232,1.3226,1.322,1.3214,1.3276,1.3276,1.3312,1.3312,1.3312]}]]